"startDT [UTC]","vpos","CH4 [ppm]","stdev(CH4) [ppm]","CO2 [ppm]","stdev(CO2) [ppm]","H2O [ppm]","stdev(H2O)","p_LGR [torr]","T_LGR [C]","mt1_LGR [us]","mt2_LGR [us]","T_ECpre [C]","T_EC1 [C]","T_EC2 [C]","p_inlet [hPa]","p_in [hPa]","p_out [hPa]","T_inlet [C]","RH_inlet [%]","dwpt_inlet [C]","T_vent [C]","RH_vent [%]","dwpt_vent [C]","flow_vent [l min-1]","flow_inlet [l min-1]","dwpt_sample [C]","T_room [C]"
2013-06-02 00:00:00,0.0,1.8956,0.0010,407.89,0.30,158.7,41.1,138.19,24.52,24.62,36.36,0.04,-272.77,-272.77,-36,551,-925,18.4,22.4,-3.5,18.7,22.7,-3.0,5.73,2.40,-25.4,24.4
2013-06-02 00:01:00,0.0,1.8955,0.0010,407.88,0.30,160.1,34.5,138.19,24.52,24.62,36.37,0.04,-272.76,-272.76,-36,551,-925,18.4,22.2,-3.5,18.7,22.6,-3.1,5.73,2.39,-25.3,24.3
2013-06-02 00:02:00,0.0,1.8950,0.0009,407.79,0.32,153.8,39.4,138.19,24.52,24.62,36.37,0.04,-272.76,-272.76,-36,551,-925,18.4,22.2,-3.6,18.7,22.6,-3.1,5.73,2.40,-25.3,24.3
2013-06-02 00:03:00,0.0,1.8951,0.0008,407.86,0.31,158.0,34.2,138.19,24.51,24.62,36.36,0.04,-272.76,-272.77,-36,551,-925,18.4,22.3,-3.5,18.7,22.6,-3.1,5.73,2.41,-25.4,24.4
2013-06-02 00:04:00,0.0,1.8949,0.0007,407.84,0.33,156.9,38.8,138.19,24.51,24.62,36.37,0.04,-272.76,-272.76,-36,551,-925,18.4,22.6,-3.3,18.7,23.0,-2.9,5.73,2.41,-25.3,24.3
2013-06-02 00:05:00,0.0,1.8954,0.0009,407.79,0.28,164.7,41.3,138.19,24.52,24.62,36.37,0.04,-272.76,-272.76,-36,551,-925,18.4,22.8,-3.2,18.7,23.2,-2.7,5.73,2.43,-25.3,24.3
2013-06-02 00:06:00,0.0,1.8953,0.0010,407.85,0.25,161.4,36.4,138.19,24.52,24.62,36.36,0.04,-272.76,-272.76,-36,551,-925,18.4,22.7,-3.2,18.7,23.1,-2.8,5.73,2.43,-25.3,24.3
2013-06-02 00:07:00,0.0,1.8951,0.0010,407.86,0.26,162.0,43.0,138.19,24.52,24.62,36.37,0.04,-272.77,-272.76,-36,551,-925,18.5,22.5,-3.4,18.7,22.9,-2.9,5.73,2.43,-25.4,24.3
2013-06-02 00:08:00,0.0,1.8956,0.0008,407.85,0.31,165.0,37.4,138.19,24.52,24.62,36.37,0.04,-272.76,-272.76,-36,551,-925,18.5,22.0,-3.6,18.7,22.4,-3.2,5.73,2.43,-25.3,24.3
2013-06-02 00:09:00,0.0,1.8956,0.0008,407.89,0.28,175.7,39.1,138.19,24.52,24.62,36.36,0.04,-272.76,-272.76,-36,551,-925,18.5,22.2,-3.5,18.7,22.6,-3.1,5.73,2.44,-25.3,24.3
2013-06-02 00:10:00,0.0,1.8954,0.0008,407.83,0.34,158.1,38.8,138.19,24.53,24.62,36.37,0.04,-272.76,-272.76,-36,551,-925,18.5,22.4,-3.4,18.7,22.7,-3.0,5.73,2.43,-25.4,24.3
2013-06-02 00:11:00,0.0,1.8957,0.0009,407.81,0.33,158.3,41.2,138.19,24.53,24.62,36.37,0.04,-272.76,-272.76,-36,551,-925,18.5,22.5,-3.3,18.8,22.8,-2.9,5.73,2.43,-25.3,24.3
2013-06-02 00:12:00,0.0,1.8954,0.0008,407.77,0.29,157.0,39.4,138.18,24.53,24.62,36.37,0.04,-272.76,-272.76,-36,551,-925,18.5,22.3,-3.4,18.8,22.7,-3.0,5.73,2.42,-25.3,24.3
2013-06-02 00:13:00,0.0,1.8956,0.0010,407.81,0.31,166.0,39.2,138.19,24.53,24.62,36.37,0.04,-272.76,-272.76,-36,551,-925,18.5,22.5,-3.3,18.8,22.9,-2.9,5.73,2.42,-25.3,24.3
2013-06-02 00:14:00,0.0,1.8958,0.0009,407.79,0.28,159.2,35.6,138.19,24.53,24.62,36.37,0.04,-272.76,-272.76,-36,551,-925,18.5,22.4,-3.4,18.8,22.8,-2.9,5.73,2.40,-25.3,24.3
2013-06-02 00:15:00,0.0,1.8952,0.0009,407.85,0.31,163.4,41.5,138.19,24.53,24.62,36.36,0.04,-272.76,-272.76,-36,551,-925,18.5,22.5,-3.3,18.8,22.8,-2.9,5.73,2.41,-25.3,24.3
2013-06-02 00:16:00,0.0,1.8949,0.0010,407.78,0.28,151.5,43.1,138.19,24.53,24.62,36.37,0.04,-272.76,-272.77,-36,551,-925,18.5,22.7,-3.2,18.8,23.0,-2.8,5.73,2.40,-25.3,24.3
2013-06-02 00:17:00,0.0,1.8950,0.0007,407.86,0.29,160.3,38.4,138.19,24.52,24.62,36.36,0.04,-272.76,-272.77,-36,551,-925,18.5,22.9,-3.1,18.8,23.3,-2.6,5.73,2.40,-25.3,24.3
2013-06-02 00:18:00,0.0,1.8945,0.0011,407.78,0.30,168.2,45.9,138.18,24.52,24.62,36.36,0.04,-272.76,-272.76,-36,551,-925,18.5,22.9,-3.1,18.8,23.3,-2.6,5.73,2.40,-25.3,24.3
2013-06-02 00:19:00,0.0,1.8952,0.0009,407.84,0.30,161.7,32.3,138.19,24.53,24.62,36.37,0.04,-272.76,-272.76,-36,551,-925,18.5,22.9,-3.1,18.8,23.3,-2.6,5.73,2.41,-25.3,24.4
2013-06-02 00:20:00,0.0,1.8952,0.0009,407.81,0.31,167.3,42.0,138.18,24.53,24.62,36.37,0.04,-272.77,-272.76,-36,551,-925,18.5,22.6,-3.2,18.8,23.0,-2.8,5.73,2.42,-25.3,24.3
2013-06-02 00:21:00,0.0,1.8952,0.0008,407.85,0.28,169.6,34.8,138.19,24.53,24.62,36.37,0.04,-272.76,-272.76,-36,551,-925,18.5,22.5,-3.3,18.8,22.9,-2.8,5.73,2.42,-25.3,24.3
2013-06-02 00:22:00,0.0,1.8948,0.0008,407.92,0.30,160.4,36.0,138.19,24.53,24.62,36.36,0.04,-272.76,-272.76,-36,551,-925,18.5,22.4,-3.4,18.8,22.8,-2.9,5.73,2.44,-25.3,24.3
2013-06-02 00:23:00,0.0,1.8947,0.0009,407.85,0.28,165.9,33.7,138.19,24.53,24.62,36.36,0.04,-272.76,-272.76,-36,551,-925,18.5,22.1,-3.6,18.8,22.5,-3.1,5.73,2.43,-25.3,24.3
2013-06-02 00:24:00,0.0,1.8948,0.0010,407.81,0.30,173.5,42.7,138.19,24.53,24.62,36.37,0.04,-272.76,-272.76,-36,551,-925,18.6,21.9,-3.6,18.8,22.3,-3.2,5.73,2.44,-25.3,24.2
2013-06-02 00:25:00,0.0,1.8953,0.0009,407.91,0.26,159.7,34.7,138.19,24.53,24.62,36.36,0.04,-272.76,-272.76,-36,551,-925,18.6,22.1,-3.5,18.8,22.5,-3.1,5.73,2.43,-25.3,24.3
2013-06-02 00:26:00,0.0,1.8954,0.0009,407.89,0.30,172.8,38.5,138.19,24.54,24.62,36.37,0.04,-272.76,-272.76,-36,551,-925,18.5,22.1,-3.5,18.8,22.5,-3.1,5.73,2.43,-25.3,24.3
2013-06-02 00:27:00,0.0,1.8954,0.0010,408.04,0.28,167.0,34.7,138.19,24.54,24.62,36.36,0.04,-272.77,-272.77,-36,551,-925,18.5,22.2,-3.5,18.8,22.5,-3.0,5.73,2.42,-25.3,24.3
2013-06-02 00:28:00,0.0,1.8954,0.0009,407.82,0.32,160.3,38.7,138.19,24.55,24.62,36.37,0.04,-272.76,-272.76,-36,551,-925,18.6,22.1,-3.5,18.8,22.4,-3.1,5.73,2.40,-25.3,24.4
2013-06-02 00:29:00,0.0,1.8959,0.0009,407.96,0.30,165.2,34.9,138.19,24.55,24.62,36.36,0.04,-272.76,-272.76,-36,551,-925,18.6,22.0,-3.6,18.8,22.4,-3.1,5.73,2.41,-25.3,24.4
2013-06-02 00:30:00,0.0,1.8960,0.0010,407.87,0.35,169.8,37.6,138.19,24.55,24.62,36.37,0.04,-272.76,-272.76,-36,551,-925,18.6,22.0,-3.6,18.8,22.3,-3.2,5.73,2.40,-25.3,24.4
2013-06-02 00:31:00,0.0,1.8960,0.0009,407.87,0.26,158.9,36.8,138.19,24.56,24.62,36.36,0.04,-272.76,-272.76,-36,551,-925,18.6,21.9,-3.6,18.8,22.3,-3.2,5.73,2.40,-25.3,24.3
2013-06-02 00:32:00,0.0,1.8958,0.0009,407.88,0.31,173.5,34.4,138.19,24.55,24.62,36.37,0.04,-272.76,-272.76,-36,551,-925,18.6,21.8,-3.7,18.8,22.2,-3.2,5.73,2.40,-25.3,24.3
2013-06-02 00:33:00,0.0,1.8957,0.0009,407.92,0.25,181.1,35.4,138.18,24.55,24.62,36.36,0.04,-272.76,-272.76,-36,552,-925,18.6,21.8,-3.7,18.8,22.2,-3.2,5.73,2.41,-25.3,24.4
2013-06-02 00:34:00,0.0,1.8951,0.0010,407.92,0.33,170.6,34.5,138.19,24.55,24.62,36.36,0.04,-272.76,-272.77,-36,552,-925,18.6,21.5,-3.8,18.8,21.9,-3.4,5.73,2.42,-25.3,24.4
2013-06-02 00:35:00,0.0,1.8953,0.0008,407.89,0.30,165.7,34.5,138.18,24.55,24.62,36.37,0.04,-272.76,-272.76,-36,552,-925,18.6,21.7,-3.8,18.8,22.0,-3.3,5.73,2.43,-25.3,24.4
2013-06-02 00:36:00,0.0,1.8956,0.0009,407.86,0.29,161.5,40.6,138.19,24.55,24.62,36.37,0.04,-272.76,-272.76,-36,552,-925,18.6,21.9,-3.7,18.8,22.2,-3.2,5.73,2.43,-25.3,24.4
2013-06-02 00:37:00,0.0,1.8957,0.0011,407.90,0.29,170.7,39.8,138.19,24.56,24.62,36.36,0.04,-272.76,-272.76,-36,552,-925,18.6,21.9,-3.6,18.8,22.3,-3.2,5.73,2.44,-25.3,24.4
2013-06-02 00:38:00,0.0,1.8953,0.0010,407.77,0.33,158.9,44.1,138.18,24.55,24.62,36.37,0.04,-272.76,-272.76,-36,552,-925,18.6,22.0,-3.5,18.9,22.4,-3.1,5.73,2.44,-25.3,24.3
2013-06-02 00:39:00,0.0,1.8952,0.0010,407.87,0.22,162.1,39.8,138.19,24.55,24.62,36.36,0.04,-272.76,-272.76,-36,552,-925,18.6,21.9,-3.6,18.9,22.3,-3.1,5.73,2.43,-25.3,24.4
2013-06-02 00:40:00,0.0,1.8950,0.0010,407.78,0.29,168.2,38.9,138.19,24.54,24.62,36.36,0.04,-272.76,-272.76,-36,552,-925,18.6,21.9,-3.6,18.9,22.2,-3.2,5.73,2.42,-25.3,24.3
2013-06-02 00:41:00,0.0,1.8947,0.0011,407.83,0.31,158.0,37.8,138.18,24.54,24.62,36.37,0.04,-272.76,-272.76,-36,552,-925,18.6,21.7,-3.7,18.9,22.1,-3.2,5.73,2.41,-25.3,24.4
2013-06-02 00:42:00,0.0,1.8948,0.0010,407.87,0.31,161.4,38.9,138.19,24.54,24.62,36.36,0.04,-272.76,-272.76,-36,552,-925,18.6,21.8,-3.7,18.9,22.1,-3.2,5.73,2.40,-25.3,24.4
2013-06-02 00:43:00,0.0,1.8948,0.0010,407.87,0.27,167.3,39.0,138.19,24.54,24.62,36.36,0.04,-272.76,-272.76,-36,552,-925,18.6,21.8,-3.7,18.9,22.2,-3.2,5.73,2.40,-25.3,24.4
2013-06-02 00:44:00,0.0,1.8949,0.0009,407.84,0.31,180.0,37.0,138.19,24.54,24.62,36.36,0.04,-272.76,-272.76,-36,552,-925,18.6,21.5,-3.8,18.9,21.9,-3.3,5.73,2.39,-25.3,24.4
2013-06-02 00:45:00,0.0,1.8955,0.0011,407.89,0.29,172.6,40.6,138.19,24.55,24.62,36.36,0.04,-272.76,-272.76,-36,552,-925,18.6,21.5,-3.8,18.9,21.8,-3.4,5.73,2.40,-25.3,24.4
2013-06-02 00:46:00,0.0,1.8948,0.0008,407.88,0.33,163.4,38.5,138.19,24.55,24.62,36.37,0.04,-272.76,-272.76,-36,552,-925,18.6,21.5,-3.8,18.9,21.8,-3.4,5.73,2.40,-25.3,24.4
2013-06-02 00:47:00,0.0,1.8953,0.0010,407.81,0.32,160.5,44.6,138.19,24.56,24.62,36.37,0.04,-272.76,-272.76,-36,552,-925,18.6,21.9,-3.6,18.9,22.2,-3.2,5.73,2.42,-25.3,24.4
2013-06-02 00:48:00,0.0,1.8954,0.0009,407.86,0.30,182.2,35.1,138.19,24.56,24.62,36.36,0.04,-272.76,-272.76,-36,552,-925,18.6,21.9,-3.6,18.9,22.3,-3.1,5.73,2.42,-25.3,24.4
2013-06-02 00:49:00,0.0,1.8953,0.0008,407.88,0.27,169.6,38.2,138.18,24.56,24.62,36.37,0.04,-272.76,-272.76,-36,552,-925,18.6,21.7,-3.7,18.9,22.1,-3.2,5.73,2.44,-25.3,24.4
2013-06-02 00:50:00,0.0,1.8954,0.0010,408.03,0.32,175.0,38.7,138.19,24.57,24.62,36.36,0.04,-272.76,-272.76,-36,552,-925,18.6,21.6,-3.8,18.9,21.9,-3.3,5.73,2.44,-25.3,24.5
2013-06-02 00:51:00,0.0,1.8956,0.0009,407.87,0.26,167.1,33.0,138.19,24.58,24.62,36.36,0.04,-272.76,-272.76,-36,552,-925,18.6,21.7,-3.7,18.9,22.0,-3.3,5.73,2.44,-25.3,24.5
2013-06-02 00:52:00,0.0,1.8958,0.0010,407.88,0.29,168.6,39.9,138.19,24.57,24.62,36.37,0.04,-272.76,-272.76,-36,552,-925,18.6,21.6,-3.7,18.9,22.0,-3.3,5.73,2.44,-25.3,24.4
2013-06-02 00:53:00,0.0,1.8959,0.0011,407.86,0.30,173.3,40.1,138.18,24.57,24.62,36.37,0.04,-272.76,-272.76,-36,552,-925,18.6,21.4,-3.9,18.9,21.8,-3.4,5.73,2.42,-25.3,24.4
2013-06-02 00:54:00,0.0,1.8950,0.0008,407.77,0.29,163.1,36.9,138.18,24.57,24.62,36.37,0.04,-272.76,-272.76,-36,552,-925,18.6,21.4,-3.9,18.9,21.8,-3.4,5.73,2.42,-25.3,24.4
2013-06-02 00:55:00,0.0,1.8949,0.0007,407.91,0.30,175.6,36.9,138.18,24.57,24.62,36.36,0.04,-272.76,-272.76,-36,552,-925,18.7,21.5,-3.8,18.9,21.9,-3.4,5.73,2.41,-25.3,24.3
2013-06-02 00:56:00,0.0,1.8949,0.0009,407.87,0.25,164.9,41.3,138.18,24.56,24.62,36.36,0.04,-272.76,-272.76,-36,552,-925,18.6,21.9,-3.6,18.9,22.2,-3.2,5.73,2.39,-25.2,24.4
2013-06-02 00:57:00,0.0,1.8947,0.0009,407.81,0.28,167.4,44.2,138.18,24.56,24.62,36.37,0.04,-272.76,-272.76,-37,552,-925,18.6,21.9,-3.6,18.9,22.2,-3.1,5.73,2.40,-25.3,24.4
2013-06-02 00:58:00,0.0,1.8951,0.0008,407.85,0.31,160.7,32.4,138.18,24.56,24.62,36.36,0.04,-272.76,-272.76,-36,552,-925,18.6,21.8,-3.7,18.9,22.1,-3.2,5.73,2.39,-25.3,24.5
2013-06-02 00:59:00,0.0,1.8949,0.0012,407.81,0.32,165.9,36.3,138.18,24.56,24.62,36.37,0.04,-272.76,-272.76,-36,552,-925,18.6,21.8,-3.6,18.9,22.2,-3.2,5.73,2.41,-25.3,24.5
2013-06-02 01:00:00,0.0,1.8951,0.0009,407.89,0.25,168.3,42.6,138.19,24.56,24.62,36.36,0.04,-272.76,-272.76,-36,552,-925,18.6,21.9,-3.6,18.9,22.2,-3.1,5.73,2.42,-25.3,24.5
2013-06-02 01:01:00,0.0,1.8948,0.0011,407.93,0.24,176.6,40.8,138.19,24.57,24.62,36.36,0.04,-272.76,-272.76,-36,552,-926,18.6,21.9,-3.6,18.9,22.3,-3.1,5.73,2.42,-25.3,24.5
2013-06-02 01:02:00,0.0,1.8955,0.0009,407.86,0.29,180.4,46.8,138.18,24.57,24.62,36.37,0.04,-272.76,-272.76,-36,552,-925,18.6,21.9,-3.6,18.9,22.3,-3.1,5.73,2.44,-25.2,24.5
2013-06-02 01:03:00,0.0,1.8954,0.0010,407.91,0.29,172.7,29.4,138.18,24.58,24.62,36.37,0.04,-272.76,-272.76,-36,552,-925,18.6,21.8,-3.7,18.9,22.1,-3.2,5.73,2.44,-25.2,24.5
2013-06-02 01:04:00,0.0,1.8950,0.0010,407.89,0.32,175.3,38.9,138.19,24.58,24.62,36.36,0.04,-272.76,-272.76,-36,552,-925,18.6,21.8,-3.7,18.9,22.1,-3.2,5.73,2.44,-25.3,24.5
2013-06-02 01:05:00,0.0,1.8947,0.0009,407.89,0.28,164.6,41.6,138.18,24.58,24.62,36.37,0.04,-272.76,-272.76,-36,552,-925,18.6,21.7,-3.8,18.9,22.0,-3.3,5.73,2.43,-25.3,24.5
2013-06-02 01:06:00,0.0,1.8946,0.0009,407.83,0.30,164.0,39.8,138.18,24.58,24.62,36.37,0.04,-272.76,-272.76,-36,552,-925,18.6,21.7,-3.7,18.9,22.0,-3.3,5.73,2.42,-25.2,24.5
2013-06-02 01:07:00,0.0,1.8951,0.0008,407.86,0.27,167.3,44.6,138.18,24.58,24.62,36.36,0.04,-272.76,-272.76,-36,552,-926,18.6,21.7,-3.8,18.9,22.0,-3.3,5.73,2.42,-25.2,24.5
2013-06-02 01:08:00,0.0,1.8948,0.0009,407.81,0.25,168.3,33.0,138.19,24.57,24.62,36.37,0.04,-272.76,-272.76,-36,552,-926,18.6,21.6,-3.8,18.9,21.9,-3.3,5.73,2.41,-25.3,24.4
2013-06-02 01:09:00,0.0,1.8946,0.0011,407.86,0.33,164.2,41.6,138.18,24.57,24.62,36.36,0.04,-272.76,-272.76,-36,552,-925,18.6,21.6,-3.8,18.9,21.9,-3.3,5.73,2.40,-25.3,24.4
2013-06-02 01:10:00,0.0,1.8948,0.0010,407.73,0.29,167.7,36.6,138.19,24.57,24.62,36.37,0.04,-272.76,-272.76,-36,552,-925,18.6,21.6,-3.8,18.9,21.9,-3.3,5.73,2.40,-25.2,24.5
2013-06-02 01:11:00,0.0,1.8938,0.0009,407.88,0.24,178.9,36.5,138.18,24.57,24.62,36.36,0.04,-272.76,-272.76,-36,552,-926,18.6,21.9,-3.6,18.9,22.2,-3.2,5.73,2.41,-25.3,24.5
2013-06-02 01:12:00,0.0,1.8945,0.0010,407.76,0.33,176.5,40.5,138.19,24.58,24.62,36.36,0.04,-272.76,-272.76,-36,552,-925,18.6,22.2,-3.4,18.9,22.5,-3.0,5.73,2.41,-25.2,24.5
2013-06-02 01:13:00,0.0,1.8948,0.0009,407.86,0.28,181.4,37.4,138.19,24.58,24.62,36.36,0.04,-272.76,-272.76,-36,552,-926,18.6,22.3,-3.3,18.9,22.7,-2.9,5.73,2.41,-25.2,24.5
2013-06-02 01:14:00,0.0,1.8950,0.0010,407.91,0.25,178.4,40.8,138.19,24.58,24.62,36.36,0.04,-272.77,-272.76,-36,552,-926,18.6,22.2,-3.4,18.9,22.5,-3.0,5.73,2.41,-25.2,24.5
2013-06-02 01:15:00,0.0,1.8953,0.0010,407.95,0.24,182.0,40.4,138.19,24.59,24.62,36.36,0.04,-272.76,-272.76,-36,552,-925,18.6,22.0,-3.5,18.9,22.3,-3.1,5.73,2.43,-25.2,24.5
2013-06-02 01:16:00,0.0,1.8954,0.0009,407.79,0.30,173.7,45.2,138.18,24.59,24.62,36.37,0.04,-272.76,-272.76,-36,552,-926,18.6,22.0,-3.5,18.9,22.3,-3.1,5.73,2.43,-25.2,24.5
2013-06-02 01:17:00,0.0,1.8958,0.0010,407.95,0.30,176.1,36.8,138.18,24.59,24.62,36.36,0.04,-272.76,-272.76,-36,552,-925,18.6,21.7,-3.7,18.9,22.0,-3.3,5.73,2.44,-25.2,24.5
2013-06-02 01:18:00,0.0,1.8959,0.0010,408.02,0.28,170.9,34.2,138.18,24.60,24.61,36.36,0.04,-272.76,-272.76,-36,552,-926,18.6,21.7,-3.7,18.9,22.0,-3.3,5.73,2.43,-25.2,24.5
2013-06-02 01:19:00,0.0,1.8958,0.0008,407.93,0.26,172.0,40.5,138.19,24.60,24.62,36.37,0.04,-272.76,-272.76,-36,552,-926,18.6,21.7,-3.7,18.9,22.0,-3.3,5.73,2.44,-25.2,24.5
2013-06-02 01:20:00,0.0,1.8957,0.0008,407.96,0.29,175.1,34.9,138.18,24.61,24.62,36.36,0.04,-272.76,-272.76,-36,552,-926,18.6,21.6,-3.8,18.9,21.9,-3.3,5.73,2.43,-25.2,24.6
2013-06-02 01:21:00,0.0,1.8954,0.0008,407.94,0.27,170.7,39.4,138.18,24.61,24.62,36.37,0.04,-272.76,-272.76,-36,552,-926,18.6,21.5,-3.9,18.9,21.8,-3.4,5.73,2.42,-25.2,24.5
2013-06-02 01:22:00,0.0,1.8949,0.0011,407.95,0.30,166.5,36.4,138.18,24.61,24.62,36.36,0.04,-272.77,-272.76,-36,552,-926,18.6,21.8,-3.6,18.9,22.1,-3.2,5.73,2.41,-25.2,24.5
2013-06-02 01:23:00,0.0,1.8949,0.0009,407.92,0.25,174.0,38.4,138.18,24.61,24.62,36.36,0.04,-272.76,-272.76,-36,552,-926,18.6,21.9,-3.6,18.9,22.3,-3.1,5.73,2.40,-25.2,24.6
2013-06-02 01:24:00,0.0,1.8951,0.0009,407.96,0.28,173.2,44.0,138.18,24.61,24.62,36.36,0.04,-272.76,-272.76,-36,552,-926,18.6,21.8,-3.7,18.9,22.1,-3.2,5.73,2.40,-25.2,24.6
2013-06-02 01:25:00,0.0,1.8955,0.0009,407.98,0.27,168.0,44.5,138.19,24.61,24.62,36.36,0.04,-272.76,-272.76,-36,552,-926,18.6,21.6,-3.7,18.9,22.0,-3.3,5.73,2.39,-25.2,24.5
2013-06-02 01:26:00,0.0,1.8955,0.0009,407.97,0.25,165.4,39.2,138.18,24.62,24.62,36.36,0.04,-272.76,-272.76,-36,552,-926,18.7,21.7,-3.7,19.0,22.0,-3.2,5.73,2.40,-25.2,24.5
2013-06-02 01:27:00,0.0,1.8958,0.0009,408.02,0.34,182.1,42.6,138.18,24.62,24.62,36.36,0.04,-272.76,-272.76,-37,552,-926,18.7,21.5,-3.8,19.0,21.8,-3.4,5.73,2.42,-25.2,24.5
2013-06-02 01:28:00,0.0,1.8955,0.0010,407.89,0.30,180.6,39.4,138.19,24.62,24.62,36.37,0.04,-272.76,-272.76,-36,552,-926,18.6,21.4,-3.9,18.9,21.7,-3.4,5.73,2.42,-25.2,24.4
2013-06-02 01:29:00,0.0,1.8954,0.0008,407.94,0.26,166.6,39.4,138.18,24.62,24.62,36.36,0.04,-272.76,-272.76,-36,552,-926,18.7,21.4,-3.9,19.0,21.7,-3.4,5.73,2.44,-25.2,24.5
2013-06-02 01:30:00,0.0,1.8952,0.0010,407.93,0.25,173.5,39.7,138.18,24.62,24.62,36.37,0.04,-272.76,-272.76,-37,552,-926,18.7,21.6,-3.7,19.0,21.9,-3.3,5.73,2.44,-25.2,24.5
2013-06-02 01:31:00,0.0,1.8952,0.0010,407.87,0.30,175.3,37.7,138.18,24.62,24.62,36.37,0.04,-272.76,-272.76,-36,552,-925,18.7,21.6,-3.7,19.0,22.0,-3.3,5.73,2.44,-25.2,24.5
2013-06-02 01:32:00,0.0,1.8959,0.0008,407.95,0.28,175.0,37.7,138.18,24.62,24.62,36.36,0.04,-272.76,-272.76,-36,552,-926,18.7,21.3,-3.9,19.0,21.6,-3.5,5.73,2.43,-25.2,24.5
2013-06-02 01:33:00,0.0,1.8953,0.0009,407.97,0.26,171.4,35.5,138.19,24.63,24.62,36.36,0.04,-272.76,-272.76,-36,552,-926,18.7,20.9,-4.2,19.0,21.2,-3.7,5.73,2.43,-25.2,24.5
2013-06-02 01:34:00,0.0,1.8954,0.0010,407.91,0.28,174.3,39.8,138.18,24.63,24.62,36.37,0.04,-272.76,-272.76,-36,552,-926,18.7,20.9,-4.1,19.0,21.2,-3.7,5.73,2.41,-25.2,24.5
2013-06-02 01:35:00,0.0,1.8956,0.0009,407.87,0.30,178.4,37.6,138.18,24.63,24.62,36.37,0.04,-272.76,-272.76,-36,552,-926,18.7,20.7,-4.2,19.0,21.1,-3.8,5.73,2.41,-25.2,24.5
2013-06-02 01:36:00,0.0,1.8955,0.0010,407.93,0.27,175.6,40.8,138.18,24.64,24.62,36.36,0.04,-272.76,-272.76,-36,552,-926,18.7,20.8,-4.2,19.0,21.1,-3.8,5.73,2.39,-25.2,24.5
2013-06-02 01:37:00,0.0,1.8955,0.0009,407.93,0.28,170.8,36.6,138.18,24.64,24.62,36.37,0.04,-272.76,-272.76,-37,552,-926,18.7,21.0,-4.1,19.0,21.3,-3.7,5.73,2.40,-25.2,24.5
2013-06-02 01:38:00,0.0,1.8953,0.0009,407.97,0.34,172.1,41.9,138.18,24.64,24.62,36.36,0.04,-272.76,-272.76,-36,552,-926,18.7,21.1,-4.1,19.0,21.4,-3.6,5.73,2.40,-25.2,24.5
2013-06-02 01:39:00,0.0,1.8953,0.0009,407.98,0.27,167.6,42.4,138.18,24.64,24.62,36.36,0.04,-272.76,-272.76,-36,552,-926,18.7,21.0,-4.1,19.0,21.3,-3.7,5.73,2.41,-25.2,24.6
2013-06-02 01:40:00,0.0,1.8953,0.0009,407.92,0.24,171.6,37.6,138.18,24.64,24.62,36.36,0.04,-272.76,-272.76,-36,552,-926,18.7,21.2,-3.9,19.0,21.5,-3.5,5.73,2.42,-25.2,24.5
2013-06-02 01:41:00,0.0,1.8953,0.0009,408.03,0.31,168.4,39.6,138.18,24.64,24.62,36.36,0.04,-272.76,-272.76,-36,552,-926,18.7,21.3,-3.9,19.0,21.6,-3.5,5.73,2.43,-25.2,24.5
2013-06-02 01:42:00,0.0,1.8950,0.0011,407.89,0.29,170.7,42.4,138.18,24.64,24.62,36.37,0.04,-272.76,-272.76,-36,552,-926,18.7,21.2,-4.0,19.0,21.5,-3.5,5.73,2.45,-25.2,24.5
2013-06-02 01:43:00,0.0,1.8948,0.0011,407.98,0.30,168.3,33.0,138.18,24.64,24.62,36.36,0.04,-272.76,-272.76,-37,552,-926,18.7,21.1,-4.0,19.0,21.4,-3.6,5.73,2.44,-25.2,24.5
2013-06-02 01:44:00,0.0,1.8953,0.0009,407.95,0.28,161.7,45.1,138.18,24.64,24.62,36.36,0.04,-272.76,-272.76,-37,552,-926,18.7,21.0,-4.1,19.0,21.3,-3.7,5.73,2.44,-25.2,24.5
2013-06-02 01:45:00,0.0,1.8949,0.0010,408.02,0.33,175.9,40.4,138.18,24.63,24.62,36.36,0.04,-272.76,-272.76,-36,552,-926,18.7,21.1,-4.0,19.0,21.3,-3.6,5.73,2.43,-25.2,24.6
2013-06-02 01:46:00,0.0,1.8948,0.0010,408.12,0.29,174.5,46.7,138.18,24.64,24.62,36.35,0.04,-272.76,-272.76,-36,552,-926,18.7,21.1,-4.0,19.0,21.4,-3.6,5.73,2.42,-25.2,24.6
2013-06-02 01:47:00,0.0,1.8948,0.0010,407.98,0.26,169.8,33.5,138.18,24.64,24.63,36.36,0.04,-272.76,-272.76,-36,552,-926,18.7,21.4,-3.9,19.0,21.7,-3.4,5.73,2.41,-25.2,24.6
2013-06-02 01:48:00,0.0,1.8952,0.0007,407.93,0.24,164.8,33.4,138.18,24.65,24.62,36.37,0.04,-272.76,-272.76,-36,552,-926,18.7,21.7,-3.6,19.0,22.0,-3.2,5.73,2.40,-25.2,24.6
2013-06-02 01:49:00,0.0,1.8950,0.0008,408.00,0.34,166.5,43.8,138.18,24.64,24.62,36.36,0.04,-272.76,-272.76,-36,552,-926,18.7,21.9,-3.5,19.0,22.2,-3.1,5.73,2.39,-25.2,24.6
2013-06-02 01:50:00,0.0,1.8946,0.0010,407.89,0.33,171.8,36.3,138.18,24.64,24.62,36.37,0.04,-272.76,-272.76,-36,552,-926,18.7,21.8,-3.6,19.0,22.1,-3.2,5.73,2.40,-25.2,24.6
2013-06-02 01:51:00,0.0,1.8943,0.0008,407.96,0.28,181.6,40.4,138.18,24.64,24.62,36.36,0.04,-272.76,-272.76,-36,552,-926,18.7,21.5,-3.8,19.0,21.8,-3.4,5.73,2.40,-25.2,24.6
2013-06-02 01:52:00,0.0,1.8947,0.0009,407.93,0.31,170.4,38.2,138.18,24.64,24.62,36.36,0.04,-272.76,-272.76,-36,552,-926,18.7,21.5,-3.8,19.0,21.8,-3.4,5.73,2.41,-25.2,24.6
2013-06-02 01:53:00,0.0,1.8950,0.0009,407.96,0.30,168.6,38.2,138.19,24.65,24.62,36.36,0.04,-272.76,-272.76,-36,552,-926,18.7,21.5,-3.7,19.0,21.8,-3.3,5.73,2.44,-25.2,24.6
2013-06-02 01:54:00,0.0,1.8943,0.0009,407.86,0.30,173.8,38.5,138.18,24.66,24.62,36.37,0.04,-272.76,-272.76,-37,552,-926,18.7,21.7,-3.7,19.0,22.0,-3.2,5.73,2.44,-25.2,24.5
2013-06-02 01:55:00,0.0,1.8953,0.0009,407.87,0.34,166.7,43.4,138.18,24.65,24.62,36.37,0.04,-272.76,-272.76,-37,552,-926,18.7,21.9,-3.5,19.0,22.2,-3.1,5.73,2.44,-25.1,24.5
2013-06-02 01:56:00,0.0,1.8949,0.0012,407.90,0.33,165.1,33.7,138.18,24.65,24.62,36.36,0.04,-272.76,-272.76,-37,552,-926,18.7,21.7,-3.6,19.0,22.0,-3.2,5.73,2.43,-25.2,24.5
2013-06-02 01:57:00,0.0,1.8948,0.0010,407.95,0.31,182.2,39.4,138.18,24.66,24.62,36.36,0.04,-272.76,-272.76,-37,552,-926,18.7,21.7,-3.6,19.0,22.0,-3.2,5.73,2.43,-25.2,24.6
2013-06-02 01:58:00,0.0,1.8950,0.0009,408.01,0.34,176.5,36.9,138.19,24.67,24.62,36.36,0.04,-272.76,-272.76,-37,552,-926,18.7,21.8,-3.6,19.0,22.1,-3.2,5.73,2.41,-25.1,24.6
2013-06-02 01:59:00,0.0,1.8952,0.0008,408.03,0.31,167.2,34.7,138.18,24.67,24.62,36.36,0.04,-272.76,-272.76,-37,552,-926,18.7,21.7,-3.6,19.0,22.1,-3.2,5.73,2.40,-25.2,24.6
2013-06-02 02:00:00,0.0,1.8956,0.0010,407.98,0.29,175.6,34.7,138.18,24.68,24.62,36.36,0.04,-272.75,-272.76,-37,552,-926,18.7,21.6,-3.7,19.0,21.9,-3.3,5.73,2.40,-25.2,24.6
2013-06-02 02:01:00,0.0,1.8953,0.0009,408.06,0.28,177.1,41.2,138.18,24.68,24.62,36.36,0.04,-272.76,-272.76,-37,552,-926,18.7,21.3,-3.9,19.0,21.6,-3.4,5.73,2.39,-25.2,24.6
2013-06-02 02:02:00,0.0,1.8953,0.0009,407.99,0.34,177.4,32.5,138.18,24.69,24.62,36.36,0.04,-272.76,-272.76,-37,552,-926,18.7,21.4,-3.8,19.0,21.7,-3.4,5.73,2.40,-25.2,24.6
2013-06-02 02:03:00,0.0,1.8955,0.0009,408.00,0.32,175.6,36.0,138.18,24.68,24.62,36.37,0.04,-272.76,-272.76,-37,552,-926,18.7,21.4,-3.8,19.0,21.7,-3.4,5.73,2.41,-25.2,24.6
2013-06-02 02:04:00,0.0,1.8951,0.0009,407.97,0.30,179.4,44.7,138.18,24.68,24.62,36.36,0.04,-272.76,-272.76,-37,552,-926,18.7,21.2,-4.0,19.0,21.5,-3.5,5.73,2.41,-25.2,24.6
2013-06-02 02:05:00,0.0,1.8946,0.0010,407.87,0.32,170.9,43.4,138.18,24.68,24.62,36.37,0.04,-272.76,-272.76,-37,552,-926,18.7,21.1,-4.0,19.0,21.4,-3.6,5.73,2.43,-25.2,24.6
2013-06-02 02:06:00,0.0,1.8948,0.0009,407.94,0.33,170.1,40.9,138.18,24.67,24.62,36.36,0.04,-272.76,-272.76,-37,552,-926,18.7,21.1,-4.0,19.0,21.4,-3.5,5.73,2.43,-25.1,24.6
2013-06-02 02:07:00,0.0,1.8952,0.0010,407.90,0.34,170.8,38.6,138.18,24.68,24.62,36.37,0.04,-272.76,-272.76,-37,552,-926,18.7,21.1,-4.0,19.0,21.4,-3.6,5.73,2.44,-25.1,24.6
2013-06-02 02:08:00,0.0,1.8948,0.0010,408.04,0.30,177.5,40.0,138.18,24.68,24.62,36.36,0.04,-272.76,-272.76,-37,552,-926,18.7,21.3,-3.9,19.0,21.6,-3.4,5.73,2.44,-25.1,24.6
2013-06-02 02:09:00,0.0,1.8947,0.0009,408.05,0.26,179.0,38.9,138.18,24.68,24.62,36.36,0.04,-272.76,-272.76,-37,552,-926,18.7,21.5,-3.8,19.0,21.8,-3.3,5.73,2.42,-25.1,24.6
2013-06-02 02:10:00,0.0,1.8946,0.0012,408.01,0.26,172.6,44.1,138.18,24.68,24.62,36.36,0.04,-272.76,-272.76,-37,552,-926,18.7,21.5,-3.7,19.0,21.9,-3.3,5.73,2.42,-25.1,24.6
2013-06-02 02:11:00,0.0,1.8948,0.0010,407.90,0.30,173.3,42.1,138.18,24.69,24.62,36.37,0.04,-272.76,-272.76,-37,552,-926,18.7,21.4,-3.8,19.0,21.7,-3.4,5.73,2.40,-25.1,24.6
2013-06-02 02:12:00,0.0,1.8950,0.0010,407.95,0.27,179.5,35.5,138.18,24.69,24.62,36.36,0.04,-272.76,-272.76,-37,552,-926,18.7,21.2,-3.9,19.0,21.5,-3.5,5.73,2.40,-25.2,24.6
2013-06-02 02:13:00,0.0,1.8953,0.0009,407.98,0.30,174.4,37.7,138.18,24.70,24.62,36.36,0.04,-272.76,-272.76,-37,552,-926,18.7,21.1,-4.0,19.0,21.4,-3.6,5.73,2.40,-25.2,24.6
2013-06-02 02:14:00,0.0,1.8949,0.0011,408.06,0.28,177.5,40.0,138.18,24.70,24.62,36.35,0.04,-272.76,-272.76,-37,552,-926,18.7,21.1,-4.0,19.0,21.4,-3.6,5.73,2.40,-25.1,24.6
2013-06-02 02:15:00,0.0,1.8950,0.0011,407.98,0.29,175.9,38.8,138.18,24.70,24.62,36.36,0.04,-272.76,-272.77,-37,552,-926,18.7,21.2,-3.9,19.0,21.5,-3.5,5.73,2.41,-25.1,24.6
2013-06-02 02:16:00,0.0,1.8953,0.0010,407.99,0.30,166.3,38.9,138.18,24.71,24.62,36.37,0.04,-272.76,-272.76,-37,553,-926,18.7,21.0,-4.1,19.0,21.3,-3.6,5.73,2.42,-25.2,24.6